Oceana NAS, VA

3:41 AM EDT on March 27, 2017 (GMT -0400)
Oceana Naval Air Station

Weather History for KNTU - December, 2013

Change the Weather History Date:

Monday, December 2, 2013

  Actual Average Record
Temperature  
Mean Temperature 42 °F -  
Max Temperature 54 °F 54 °F 70 °F (1998)
Min Temperature 30 °F 37 °F 26 °F (2002)
Degree Days  
Heating Degree Days 23    
Moisture  
Dew Point 37 °F    
Average Humidity 89    
Maximum Humidity 100    
Minimum Humidity 59    
Precipitation  
Precipitation 0.00 in - - ()
Sea Level Pressure  
Sea Level Pressure 29.92 in    
Wind  
Wind Speed 2 mph (NNE)    
Max Wind Speed 9 mph    
Max Gust Speed -    
Visibility 6 miles    
Events Fog    
Averages and records for this station are not official NWS values.
T = Trace of Precipitation, MM = Missing Value Source: NWS Daily Summary

Daily Weather History Graph

Daily Weather History Graph

Search for Another Location

Airport or City:

Trip Planner

Search our weather history database for the weather conditions in past years. The results will help you decide how hot, cold, wet, or windy it might be!

Date:

Astronomy

Dec. 02, 2013 Rise Set
Actual Time 6:59 AM EST 4:47 PM EST
Civil Twilight 6:30 AM EST 5:16 PM EST
Nautical Twilight 5:58 AM EST 5:48 PM EST
Astronomical Twilight 5:27 AM EST 6:19 PM EST
Moon 6:22 AM EST (12/2) 4:47 PM EST (12/2)
Length of Visible Light 10h 45m
Length of Day
9h 48m
Waning Crescent, 0% of the Moon is Illuminated
Dec 2
Waning Crescent
Dec 2
New
Dec 9
First Quarter
Dec 17
Full
Dec 25
Last Quarter

Hourly Weather History & Observations

Time (EST) Temp. Windchill Dew Point Humidity Pressure Visibility Wind Dir Wind Speed Gust Speed Precip Events Conditions
12:56 AM 33.1 °F - 33.1 °F 100% 30.02 in 1.0 mi Calm Calm - N/A   Mostly Cloudy
1:48 AM 33.1 °F - 33.1 °F 100% 30.00 in 5.0 mi Calm Calm - N/A   Mostly Cloudy
1:56 AM 33.1 °F - 32.0 °F 96% 30.01 in 5.0 mi Calm Calm - N/A   Mostly Cloudy
2:47 AM 32.0 °F - 30.9 °F 96% 29.99 in 7.0 mi Calm Calm - N/A   Clear
2:56 AM 32.0 °F - 30.9 °F 96% 29.99 in 8.0 mi Calm Calm - N/A   Clear
3:56 AM 32.0 °F - 30.9 °F 96% 29.97 in 10.0 mi Calm Calm - N/A   Clear
4:56 AM 32.0 °F - 30.0 °F 92% 29.97 in 10.0 mi Calm Calm - N/A   Clear
5:56 AM 30.9 °F - 30.0 °F 96% 29.96 in 10.0 mi Calm Calm - N/A   Clear
6:56 AM 30.9 °F 27.5 °F 28.9 °F 92% 29.98 in 6.0 mi WSW 3.5 mph - N/A   Scattered Clouds
7:56 AM 33.1 °F - 30.0 °F 89% 29.98 in 4.0 mi Calm Calm - N/A Fog Scattered Clouds
8:24 AM 33.1 °F 30.0 °F 30.9 °F 92% 29.96 in 0.2 mi North 3.5 mph - N/A Fog Fog
8:36 AM 34.0 °F - 34.0 °F 100% 29.95 in 0.1 mi Calm Calm - N/A Fog Fog
8:44 AM 37.9 °F 35.5 °F 37.0 °F 97% 29.95 in 0.2 mi North 3.5 mph - N/A Fog Fog
8:50 AM 39.2 °F 35.9 °F 39.2 °F 100% 29.95 in 2.0 mi NNE 4.6 mph - N/A   Mist
8:56 AM 41.0 °F 39.0 °F 41.0 °F 100% 29.96 in 2.0 mi ESE 3.5 mph - N/A   Scattered Clouds
9:04 AM 42.1 °F 40.2 °F 42.1 °F 100% 29.96 in 4.0 mi Variable 3.5 mph - N/A   Scattered Clouds
9:56 AM 50.0 °F - 45.0 °F 83% 29.95 in 6.0 mi Calm Calm - N/A   Mostly Cloudy
10:56 AM 53.1 °F - 42.1 °F 66% 29.93 in 7.0 mi East 8.1 mph - N/A   Mostly Cloudy
11:56 AM 54.0 °F - 41.0 °F 62% 29.91 in 10.0 mi ENE 6.9 mph - N/A   Mostly Cloudy
12:56 PM 54.0 °F - 39.9 °F 59% 29.89 in 10.0 mi East 6.9 mph - N/A   Mostly Cloudy
1:56 PM 54.0 °F - 39.9 °F 59% 29.87 in 10.0 mi NE 5.8 mph - N/A   Mostly Cloudy
2:56 PM 54.0 °F - 42.1 °F 64% 29.85 in 10.0 mi NE 6.9 mph - N/A   Mostly Cloudy
3:56 PM 52.0 °F - 43.0 °F 71% 29.85 in 10.0 mi NNE 9.2 mph - N/A   Mostly Cloudy
4:56 PM 46.9 °F - 39.9 °F 77% 29.86 in 10.0 mi NNE 4.6 mph - N/A   Scattered Clouds
5:56 PM 43.0 °F 40.3 °F 41.0 °F 93% 29.87 in 10.0 mi North 4.6 mph - N/A   Scattered Clouds
6:56 PM 41.0 °F 39.0 °F 39.9 °F 96% 29.86 in 7.0 mi North 3.5 mph - N/A   Clear
7:56 PM 39.9 °F 37.8 °F 39.0 °F 97% 29.86 in 7.0 mi North 3.5 mph - N/A   Clear
8:56 PM 42.1 °F - 39.9 °F 92% 29.87 in 3.0 mi Calm Calm - N/A   Clear
9:56 PM 39.9 °F - 39.9 °F 100% 29.87 in 3.0 mi Calm Calm - N/A   Clear
10:15 PM 35.1 °F - 35.1 °F 100% 29.86 in 0.5 mi Calm Calm - N/A Fog Fog
10:56 PM 35.1 °F 31.0 °F 34.0 °F 96% 29.86 in 1.0 mi NNW 4.6 mph - N/A   Scattered Clouds
11:34 PM 37.9 °F - 36.0 °F 93% 29.86 in 3.0 mi Calm Calm - N/A   Clear
11:56 PM 39.9 °F - 39.0 °F 97% 29.86 in 5.0 mi Calm Calm - N/A   Clear